Weather History for KSGJ - September, 2013

Change the Weather History Date:

Thursday, September 5, 2013

  Actual Average Record
Temperature  
Mean Temperature 82 °F -  
Max Temperature 91 °F 83 °F 97 °F (2011)
Min Temperature 75 °F 71 °F 67 °F (1978)
Cooling Degree Days 18    
Growing Degree Days 32 (Base 50)    
Moisture  
Dew Point 73 °F    
Average Humidity 77    
Maximum Humidity 94    
Minimum Humidity 57    
Precipitation  
Precipitation 0.02 in - - ()
Sea Level Pressure  
Sea Level Pressure 30.07 in    
Wind  
Wind Speed 5 mph (SSW)    
Max Wind Speed 12 mph    
Max Gust Speed 16 mph    
Visibility 10 miles    
Events Rain , Thunderstorm    
Averages and records for this station are not official NWS values.
T = Trace of Precipitation, MM = Missing Value Source: NWS Daily Summary

Daily Weather History Graph

Daily Weather History Graph

Search for Another Location

Airport or City:

Trip Planner

Search our weather history database for the weather conditions in past years. The results will help you decide how hot, cold, wet, or windy it might be!

Date:

Astronomy

Sep. 05, 2013 Rise Set
Actual Time 7:04 AM EDT 7:42 PM EDT
Civil Twilight 6:40 AM EDT 8:06 PM EDT
Nautical Twilight 6:12 AM EDT 8:35 PM EDT
Astronomical Twilight 5:43 AM EDT 9:04 PM EDT
Moon 7:10 AM EDT (9/5) 7:40 PM EDT (9/5)
Length of Visible Light 13h 26m
Length of Day
12h 37m
New Moon, 0% of the Moon is Illuminated
Sep 5
New Moon
Sep 12
First Quarter
Sep 19
Full
Sep 26
Last Quarter
Oct 4
New

Hourly Weather History & Observations

Time (EDT) Temp. Heat Index Dew Point Humidity Pressure Visibility Wind Dir Wind Speed Gust Speed Precip Events Conditions
12:58 AM 75.9 °F - 73.0 °F 91% 30.08 in 10.0 mi Calm Calm - N/A   Clear
1:58 AM 75.9 °F - 73.0 °F 91% 30.08 in 10.0 mi SSW 3.5 mph - N/A   Clear
2:58 AM 75.9 °F - 73.0 °F 91% 30.07 in 10.0 mi SW 4.6 mph - N/A   Partly Cloudy
3:25 AM 75.2 °F - 73.4 °F 94% 30.07 in 10.0 mi SW 5.8 mph - N/A   Overcast
3:38 AM 75.2 °F - 73.4 °F 94% 30.06 in 10.0 mi WSW 5.8 mph - N/A   Mostly Cloudy
3:58 AM 75.9 °F - 73.0 °F 91% 30.06 in 10.0 mi West 6.9 mph - N/A   Scattered Clouds
4:58 AM 75.0 °F - 73.0 °F 94% 30.06 in 10.0 mi West 8.1 mph - N/A   Partly Cloudy
5:58 AM 75.0 °F - 72.0 °F 90% 30.07 in 10.0 mi West 4.6 mph - N/A   Clear
6:58 AM 75.0 °F - 72.0 °F 90% 30.09 in 10.0 mi Calm Calm - N/A   Clear
7:58 AM 77.0 °F - 72.0 °F 84% 30.09 in 10.0 mi WSW 4.6 mph - N/A   Clear
8:58 AM 81.0 °F 84.9 °F 71.1 °F 72% 30.11 in 10.0 mi West 5.8 mph - N/A   Clear
9:58 AM 84.0 °F 90.2 °F 73.0 °F 69% 30.12 in 10.0 mi WNW 8.1 mph - N/A   Clear
10:58 AM 86.0 °F 93.8 °F 73.9 °F 67% 30.12 in 10.0 mi WSW 5.8 mph - N/A   Clear
11:58 AM 89.1 °F 97.0 °F 73.0 °F 59% 30.12 in 10.0 mi NW 4.6 mph - N/A   Clear
12:58 PM 89.1 °F 96.0 °F 72.0 °F 57% 30.10 in 10.0 mi Calm Calm - N/A   Mostly Cloudy
1:58 PM 88.0 °F 97.5 °F 75.0 °F 65% 30.09 in 10.0 mi East 8.1 mph - N/A   Clear
2:58 PM 88.0 °F 96.5 °F 73.9 °F 63% 30.06 in 10.0 mi SE 9.2 mph - N/A   Clear
3:58 PM 90.0 °F 100.2 °F 75.0 °F 61% 30.04 in 10.0 mi SE 11.5 mph - N/A   Clear
4:58 PM 90.0 °F 100.2 °F 75.0 °F 61% 30.03 in 10.0 mi SE 11.5 mph - N/A   Clear
5:58 PM 86.0 °F 95.1 °F 75.0 °F 70% 30.02 in 10.0 mi SE 10.4 mph - N/A   Clear
6:58 PM 84.0 °F 91.9 °F 75.0 °F 74% 30.04 in 10.0 mi SE 9.2 mph - N/A   Scattered Clouds
7:36 PM 84.2 °F 92.3 °F 75.2 °F 74% 30.05 in 10.0 mi SE 8.1 mph - N/A Thunderstorm Mostly Cloudy
7:57 PM 82.9 °F 91.8 °F 77.0 °F 82% 30.05 in 6.0 mi SE 10.4 mph - 0.02 in Rain Rain
8:22 PM 80.6 °F 88.1 °F 78.8 °F 94% 30.05 in 10.0 mi SSE 6.9 mph - 0.00 in Thunderstorm Scattered Clouds
8:58 PM 82.0 °F 90.2 °F 77.0 °F 85% 30.06 in 10.0 mi South 9.2 mph - 0.00 in Thunderstorm Scattered Clouds
9:51 PM 78.8 °F - 66.2 °F 65% 30.08 in 10.0 mi SW 8.1 mph - N/A   Scattered Clouds
9:58 PM 79.0 °F - 66.0 °F 64% 30.08 in 10.0 mi SW 9.2 mph 16.1 mph N/A   Partly Cloudy
10:58 PM 77.0 °F - 68.0 °F 74% 30.06 in 10.0 mi SSW 3.5 mph - N/A   Clear
11:58 PM 77.0 °F - 69.1 °F 76% 30.07 in 10.0 mi Calm Calm - N/A   Mostly Cloudy